Home   Weather   Geneva   Past weeks

Flag for Switzerland Past Weather in Geneva, Geneva, Switzerland — Yesterday and Last 2 Weeks

Now
69 °F

Mild.


Feels Like: 69 °F
Forecast: 54 / 78 °F
Wind: 1 mph from Southwest

Location: Geneve-Cointrin

Current Time: May 29, 2017 at 9:57:52 am

Latest Report: May 29, 2017 at 9:00 am


Visibility: N/A

Pressure: 30.02 "Hg

Humidity: 63%

Dew Point: 56 °F

Location of GenevaLocation

Past Weather in Geneva — Graph

°F

Geneva Temperature Yesterday

Maximum temperature yesterday: 87 °F (at 3:00 pm)
Minimum temperature yesterday: 59 °F (at 6:00 am)
Average temperature yesterday: 72 °F

High & Low Weather Summary for the Past Weeks

 TemperatureHumidityPressure
High87 °F (May 28, 3:00 pm)98% (May 15, 5:00 am)30.41 "Hg (May 15, 5:00 am)
Low41 °F (May 20, 5:00 am)29% (May 28, 3:00 pm)29.84 "Hg (May 18, 5:00 pm)
Average63 °F66%30.13 "Hg
* Reported May 14 8:00 am — May 29 8:00 am, Geneva. Weather by CustomWeather, © 2017

Note: Actual official high and low records may vary slightly from our data, if they occured in-between our weather recording intervals... More about our weather records

Advertising

Geneva Weather History for the Previous 24 Hours

Scroll right to see more
 ConditionsComfort  
Time TempWeatherWind HumidityBarometerVisibility
8:00 am
Mon, May 29
65 °FScattered clouds.2 mph77%30.03 "Hg31 mi
7:00 am61 °FCool.1 mph76%30.05 "HgN/A
6:00 am58 °FCool.1 mph84%30.05 "HgN/A
5:00 am59 °FCool.2 mph87%30.05 "HgN/A
4:00 am60 °FCool.1 mph83%30.05 "HgN/A
3:00 am62 °FCool.1 mph79%30.05 "HgN/A
2:00 am64 °FMild.2 mph76%30.06 "HgN/A
1:00 am64 °FMild.1 mph80%30.07 "HgN/A
12:00 am66 °FMild.2 mph77%30.07 "HgN/A
11:00 pm
Sun, May 28
67 °FPassing clouds.2 mph76%30.06 "Hg25 mi
10:00 pm71 °FMild.2 mph67%30.04 "HgN/A
9:00 pm74 °FMild.2 mph62%30.02 "HgN/A
8:00 pm78 °FScattered clouds.5 mph53%30.01 "Hg31 mi
7:00 pm82 °FWarm.6 mph45%29.99 "HgN/A
6:00 pm83 °FWarm.6 mph40%30.01 "HgN/A
5:00 pm81 °FScattered clouds.6 mph49%30.03 "Hg37 mi
4:00 pm86 °FPleasantly warm.10 mph32%30.00 "HgN/A
3:00 pm87 °FPleasantly warm.13 mph29%30.02 "HgN/A
2:00 pm83 °FPassing clouds.8 mph43%30.03 "Hg25 mi
1:00 pm79 °FWarm.5 mph50%30.06 "HgN/A
12:00 pm78 °FWarm.2 mph52%30.08 "HgN/A
11:00 am75 °FPassing clouds.3 mph58%30.09 "Hg25 mi
10:00 am74 °FMild.2 mph57%30.09 "HgN/A
9:00 am70 °FMild.1 mph66%30.11 "HgN/A
Weather by CustomWeather, © 2017

See weather overviewHow to use our weather pages